• In Austria
  • List of Countries
  • For 7 days
  • Water Temperature
  • Satellite Maps
  • Weather Map
  • News
  • Weather Widgets
  • user-avatar
    Login

    Hourly Weather Chysten'ke

    Today, 15 August, Wednesday

    Time Temperature Precipitation Wind Pressure Humidity
    00:00 +21°C° 0 mm 2 mps 735 mmHg 51%
    01:00 +21°C° 0 mm 2 mps 734 mmHg 51%
    02:00 +21°C° 0 mm 3 mps 734 mmHg 52%
    03:00 +21°C° 0 mm 3 mps 734 mmHg 54%
    04:00 +20°C° 0 mm 3 mps 734 mmHg 56%
    05:00 +20°C° 0 mm 3 mps 734 mmHg 59%
    06:00 +23°C° 0 mm 4 mps 734 mmHg 54%
    07:00 +26°C° 0 mm 4 mps 734 mmHg 49%
    08:00 +28°C° 0 mm 4 mps 734 mmHg 44%
    09:00 +30°C° 0 mm 4 mps 734 mmHg 40%
    10:00 +32°C° 0 mm 5 mps 734 mmHg 35%
    11:00 +34°C° 0 mm 5 mps 734 mmHg 30%
    12:00 +34°C° 0 mm 5 mps 734 mmHg 29%
    13:00 +34°C° 0 mm 5 mps 734 mmHg 29%
    14:00 +34°C° 0 mm 5 mps 734 mmHg 29%
    15:00 +33°C° 0 mm 5 mps 734 mmHg 30%
    16:00 +33°C° 0 mm 4 mps 734 mmHg 32%
    17:00 +32°C° 0 mm 4 mps 733 mmHg 34%
    18:00 +29°C° 0 mm 4 mps 733 mmHg 39%
    19:00 +27°C° 0 mm 3 mps 733 mmHg 43%
    20:00 +24°C° 0 mm 3 mps 733 mmHg 48%
    21:00 +24°C° 0 mm 3 mps 733 mmHg 49%
    22:00 +24°C° 0 mm 3 mps 733 mmHg 51%
    23:00 +22°C° 0 mm 3 mps 733 mmHg 52%

    Tomorrow, 16 August, Thursday

    Time Temperature Precipitation Wind Pressure Humidity
    00:00 +22°C° 0 mm 4 mps 733 mmHg 53%
    01:00 +22°C° 0 mm 4 mps 733 mmHg 54%
    02:00 +22°C° 0 mm 4 mps 732 mmHg 55%
    03:00 +21°C° 0 mm 4 mps 732 mmHg 57%
    04:00 +21°C° 0 mm 4 mps 732 mmHg 59%
    05:00 +21°C° 0 mm 4 mps 732 mmHg 60%
    06:00 +23°C° 0 mm 4 mps 732 mmHg 54%
    07:00 +27°C° 0 mm 5 mps 732 mmHg 47%
    08:00 +29°C° 0 mm 6 mps 732 mmHg 41%
    09:00 +32°C° 0 mm 6 mps 732 mmHg 37%
    10:00 +33°C° 0 mm 7 mps 733 mmHg 32%
    11:00 +34°C° 0 mm 7 mps 733 mmHg 28%
    12:00 +34°C° 0 mm 7 mps 732 mmHg 29%
    13:00 +34°C° 0 mm 7 mps 732 mmHg 30%
    14:00 +34°C° 0 mm 6 mps 732 mmHg 30%
    15:00 +33°C° 0 mm 6 mps 732 mmHg 33%
    16:00 +33°C° 0 mm 5 mps 732 mmHg 37%
    17:00 +32°C° 0 mm 5 mps 732 mmHg 40%
    18:00 +29°C° 0 mm 4 mps 732 mmHg 45%
    19:00 +27°C° 0 mm 4 mps 732 mmHg 49%
    20:00 +25°C° 0 mm 3 mps 732 mmHg 54%
    21:00 +24°C° 0 mm 3 mps 732 mmHg 56%
    22:00 +24°C° 0 mm 2 mps 732 mmHg 57%
    23:00 +23°C° 0 mm 2 mps 732 mmHg 59%

    Day after tomorrow, 17 August, Friday

    Time Temperature Precipitation Wind Pressure Humidity
    00:00 +23°C° 0 mm 2 mps 732 mmHg 59%
    01:00 +23°C° 0 mm 2 mps 731 mmHg 60%
    02:00 +23°C° 0 mm 2 mps 731 mmHg 60%
    03:00 +23°C° 0 mm 2 mps 731 mmHg 61%
    04:00 +23°C° 0 mm 2 mps 731 mmHg 62%
    05:00 +21°C° 0 mm 3 mps 731 mmHg 62%
    06:00 +25°C° 0 mm 3 mps 732 mmHg 56%
    07:00 +27°C° 0 mm 3 mps 732 mmHg 50%
    08:00 +30°C° 0 mm 4 mps 732 mmHg 44%
    09:00 +32°C° 0 mm 4 mps 732 mmHg 40%
    10:00 +33°C° 0 mm 5 mps 732 mmHg 37%
    11:00 +34°C° 0 mm 5 mps 733 mmHg 34%
    12:00 +34°C° 0 mm 5 mps 732 mmHg 33%
    13:00 +34°C° 0 mm 5 mps 732 mmHg 33%
    14:00 +34°C° 0 mm 5 mps 732 mmHg 33%
    15:00 +33°C° 0 mm 5 mps 732 mmHg 34%
    16:00 +32°C° 0 mm 5 mps 732 mmHg 34%
    17:00 +32°C° 0 mm 4 mps 732 mmHg 35%
    18:00 +29°C° 0 mm 4 mps 732 mmHg 39%
    19:00 +27°C° 0 mm 3 mps 732 mmHg 44%
    20:00 +25°C° 0 mm 3 mps 732 mmHg 48%
    21:00 +24°C° 0 mm 3 mps 732 mmHg 49%
    22:00 +24°C° 0 mm 3 mps 732 mmHg 50%
    23:00 +24°C° 0 mm 2 mps 732 mmHg 51%

    18 August, Saturday

    Time Temperature Precipitation Wind Pressure Humidity
    00:00 +22°C° 0 mm 3 mps 732 mmHg 51%
    01:00 +22°C° 0 mm 3 mps 732 mmHg 51%
    02:00 +22°C° 0 mm 3 mps 732 mmHg 52%
    03:00 +22°C° 0 mm 3 mps 732 mmHg 54%
    04:00 +21°C° 0 mm 3 mps 732 mmHg 56%
    05:00 +21°C° 0 mm 4 mps 732 mmHg 59%
    06:00 +23°C° 0 mm 4 mps 732 mmHg 55%
    07:00 +26°C° 0 mm 4 mps 732 mmHg 51%
    08:00 +28°C° 0 mm 4 mps 733 mmHg 48%
    09:00 +30°C° 0 mm 5 mps 733 mmHg 40%
    10:00 +33°C° 0 mm 5 mps 733 mmHg 33%
    11:00 +35°C° 0 mm 6 mps 733 mmHg 26%
    12:00 +35°C° 0 mm 6 mps 733 mmHg 26%
    13:00 +35°C° 0 mm 6 mps 733 mmHg 26%
    14:00 +35°C° 0 mm 6 mps 733 mmHg 26%
    15:00 +34°C° 0 mm 6 mps 733 mmHg 28%
    16:00 +33°C° 0 mm 5 mps 733 mmHg 29%
    17:00 +33°C° 0 mm 5 mps 733 mmHg 30%
    18:00 +29°C° 0 mm 5 mps 733 mmHg 33%
    19:00 +27°C° 0 mm 4 mps 733 mmHg 36%
    20:00 +25°C° 0 mm 4 mps 734 mmHg 39%
    21:00 +25°C° 0 mm 4 mps 734 mmHg 40%
    22:00 +25°C° 0 mm 4 mps 733 mmHg 41%
    23:00 +23°C° 0 mm 4 mps 733 mmHg 43%

    19 August, Sunday

    Time Temperature Precipitation Wind Pressure Humidity
    00:00 +23°C° 0 mm 4 mps 733 mmHg 45%
    01:00 +23°C° 0 mm 4 mps 733 mmHg 47%
    02:00 +23°C° 0 mm 4 mps 733 mmHg 49%
    03:00 +23°C° 0 mm 4 mps 733 mmHg 54%
    04:00 +22°C° 0 mm 4 mps 733 mmHg 58%
    05:00 +21°C° 0 mm 4 mps 733 mmHg 63%
    06:00 +25°C° 0 mm 4 mps 734 mmHg 57%
    07:00 +27°C° 0 mm 5 mps 734 mmHg 50%
    08:00 +29°C° 0 mm 5 mps 734 mmHg 44%
    09:00 +30°C° 0 mm 5 mps 734 mmHg 41%
    10:00 +32°C° 0 mm 6 mps 735 mmHg 38%
    11:00 +33°C° 0 mm 6 mps 735 mmHg 35%
    12:00 +33°C° 0 mm 6 mps 735 mmHg 36%
    13:00 +32°C° 0 mm 6 mps 735 mmHg 37%
    14:00 +32°C° 0 mm 6 mps 735 mmHg 38%
    15:00 +30°C° 0 mm 6 mps 734 mmHg 39%
    16:00 +29°C° 0 mm 6 mps 734 mmHg 41%
    17:00 +28°C° 0 mm 6 mps 734 mmHg 42%
    18:00 +26°C° 0 mm 5 mps 734 mmHg 45%
    19:00 +23°C° 0 mm 5 mps 734 mmHg 47%
    20:00 +21°C° 0 mm 4 mps 734 mmHg 50%
    21:00 +21°C° 0 mm 4 mps 734 mmHg 50%
    22:00 +20°C° 0 mm 4 mps 734 mmHg 50%
    23:00 +19°C° 0 mm 4 mps 734 mmHg 49%

    20 August, Monday

    Time Temperature Precipitation Wind Pressure Humidity
    00:00 +19°C° 0 mm 4 mps 734 mmHg 52%
    01:00 +19°C° 0 mm 4 mps 734 mmHg 54%
    02:00 +19°C° 0 mm 4 mps 733 mmHg 56%
    03:00 +19°C° 0 mm 4 mps 733 mmHg 61%
    04:00 +18°C° 0 mm 4 mps 733 mmHg 65%
    05:00 +18°C° 0 mm 4 mps 734 mmHg 70%
    06:00 +20°C° 0 mm 4 mps 734 mmHg 63%
    07:00 +23°C° 0 mm 5 mps 734 mmHg 55%
    08:00 +26°C° 0 mm 5 mps 734 mmHg 48%
    09:00 +27°C° 0 mm 5 mps 735 mmHg 42%
    10:00 +29°C° 0 mm 6 mps 735 mmHg 37%
    11:00 +30°C° 0 mm 6 mps 735 mmHg 31%
    12:00 +30°C° 0 mm 6 mps 735 mmHg 30%
    13:00 +30°C° 0 mm 6 mps 735 mmHg 30%
    14:00 +32°C° 0 mm 6 mps 735 mmHg 30%
    15:00 +30°C° 0 mm 5 mps 735 mmHg 30%
    16:00 +29°C° 0 mm 5 mps 735 mmHg 31%
    17:00 +28°C° 0 mm 5 mps 735 mmHg 31%
    18:00 +26°C° 0 mm 5 mps 735 mmHg 35%
    19:00 +22°C° 0 mm 4 mps 735 mmHg 39%
    20:00 +20°C° 0 mm 4 mps 735 mmHg 43%
    21:00 +20°C° 0 mm 4 mps 735 mmHg 44%
    22:00 +19°C° 0 mm 3 mps 735 mmHg 45%
    23:00 +19°C° 0 mm 3 mps 735 mmHg 45%
    Show more